Regional Weather Roundup
Issued by NWS

Home | Current Version | Previous Version | Graphics & Text | Print | Product List | Glossary On
Versions: 1 2 3 4 5 6 7 8 9 10 11 12 13 14 15 16 17 18 19 20 21 22 23 24 25 26 27 28 29 30 31 32 33 34 35 36 37 38 39 40 41 42 43 44 45 46 47 48 49 50
000
ASUS43 KMKX 302221
RWRWI

WISCONSIN REGIONAL WEATHER ROUNDUP
NATIONAL WEATHER SERVICE MILWAUKEE/SULLIVAN WI
500 PM CDT FRI SEP 30 2016

NOTE: "FAIR" INDICATES FEW OR NO CLOUDS BELOW 12,000 FEET WITH NO
SIGNIFICANT WEATHER AND/OR OBSTRUCTIONS TO VISIBILITY.

WIZ001-002-006>008-014>016-023>028-302300-
NORTHWEST WISCONSIN

CITY           SKY/WX    TMP DP  RH WIND       PRES   REMARKS
SUPERIOR ARPT  CLOUDY    55  53  94 NE10G16   30.34F
ASHLAND        CLOUDY    55  52  89 NE14      30.34F
HAYWARD        SUNNY     62  52  69 NE13      30.29F
SIREN          SUNNY     67  49  51 NE10G17   30.27S
CUMBERLAND     SUNNY     68  46  45 NE10      30.25F
RICE LAKE      SUNNY     72  48  42 NE8       30.25F
CHETEK         NOT AVBL
LADYSMITH      SUNNY     71  49  45 E9        30.26F
EAU CLAIRE     SUNNY     73  47  39 NE9       30.20F
MENOMONIE      SUNNY     74  47  38 N7        30.22F
NEW RICHMOND   SUNNY     71  45  38 NE9       30.23F
OSCEOLA        SUNNY     71  51  48 N7        30.26F
$$

WIZ003>005-009-010-017-018-302300-
NORTH CENTRAL WISCONSIN

CITY           SKY/WX    TMP DP  RH WIND       PRES   REMARKS
MANITOWISH WTR NOT AVBL
ARBOR VITAE    MOSUNNY   69  47  45 NE7       30.27F
WOODRUFF       MOSUNNY   69  47  45 NE7       30.27F
RHINELANDER    MOSUNNY   66  49  54 NE7       30.27F
EAGLE RIVER    SUNNY     66  43  42 NE10G16   30.28S
LAND O LAKES   MOSUNNY   65  45  46 NE6       30.31S
PHILLIPS       MOSUNNY   69  51  53 NE10      30.25F
TOMAHAWK       PTSUNNY   67  49  51 E8        30.26S
MEDFORD        PTSUNNY   67  51  57 NE7       30.22F
MERRILL        CLOUDY    68  52  56 NE12      30.24F
$$

WIZ029-030-035-036-043>047-302300-
CENTRAL WISCONSIN

CITY           SKY/WX    TMP DP  RH WIND       PRES   REMARKS
WAUSAU         CLOUDY    66  52  60 E8        30.21F
MOSINEE        CLOUDY    64  55  72 NE9       30.23F
MARSHFIELD     CLOUDY    68  52  56 E13       30.21S
STEVENS POINT  CLOUDY    63  52  69 NE10G16   30.22S
WAUPACA        CLOUDY    62  58  87 NE5       30.22S
WAUTOMA        LGT RAIN  59  57  94 NE10      30.21S
WISC RAPIDS    CLOUDY    65  56  72 E7        30.22F
CAMP DOUGLAS   CLOUDY    62  57  84 NE3       30.20F
$$

WIZ011>013-019>022-031-037>040-048>050-302300-
NORTHEAST WISCONSIN

CITY           SKY/WX    TMP DP  RH WIND       PRES   REMARKS
ANTIGO         CLOUDY    64  52  64 E8        30.25S
SHAWANO        CLOUDY    65  55  69 NE10      30.23S
OCONTO         NOT AVBL
STURGEON BAY   CLOUDY    63  56  78 NE13      30.22F
GREEN BAY      CLOUDY    62  58  86 NE21G26   30.22R
MANITOWOC      LGT RAIN  62  59  90 NE9       30.20F
APPLETON       CLOUDY    61  57  88 NE14      30.20R
CLINTONVILLE   CLOUDY    63  52  67 NE9       30.22S
OSHKOSH        CLOUDY    61  58  90 NE12G18   30.19R
$$

WIZ032>034-041-042-053>061-302300-
SOUTHWEST WISCONSIN

CITY           SKY/WX    TMP DP  RH WIND       PRES   REMARKS
LA CROSSE      CLOUDY    66  57  72 E6        30.19F
SPARTA         CLOUDY    63  56  78 E7        30.21F
VIROQUA        CLOUDY    59  58  96 NE7       30.21S
BOSCOBEL       CLOUDY    63  59  87 VRB5      30.18S
PRAIRIE DU CHI CLOUDY    62  56  82 N6        30.17S
PLATTEVILLE    CLOUDY    62  60  94 N13       30.16S
$$

WIZ056-057-062-063-064-067-068-302300-
SOUTH CENTRAL WISCONSIN

CITY           SKY/WX    TMP DP  RH WIND       PRES   REMARKS
REEDSBURG      NOT AVBL
BARABOO/DELLS  DRIZZLE   58  57  95 NE8       30.18F
LONE ROCK      CLOUDY    61  58  90 N7        30.18S
MINERAL POINT  CLOUDY    61  59  94 NE8       30.16S
MADISON        CLOUDY    62  56  80 NE13      30.15F
MIDDLETON      CLOUDY    63  57  82 NE12      30.17S
WATERTOWN      CLOUDY    61  59  95 NE9       30.15S
MONROE         CLOUDY    59  57  94 N12G17    30.14S
JANESVILLE     DRIZZLE   64  59  82 NE15G21   30.13S
$$

WIZ051-052-058>065-066-070>072-302300-
SOUTHEAST WISCONSIN

CITY           SKY/WX    TMP DP  RH WIND       PRES   REMARKS
MILWAUKEE      CLOUDY    61  57  87 NE10      30.15S
WAUKESHA       FOG       57  55  94 NE12G17   30.16S VSB 1
MILWAUKEE/TIMM CLOUDY    61  55  82 NE12      30.17R
RACINE         CLOUDY    63  58  83 NE14      30.15R
BURLINGTON     CLOUDY    60  56  88 NE10G18   30.14R
KENOSHA        CLOUDY    62  59  90 NE12      30.13R
FOND DU LAC    LGT RAIN  61  58  90 NE8       30.19S
SHEBOYGAN      CLOUDY    61  57  87 NE15G25   30.17F
WEST BEND      CLOUDY    68  66  94 NE8G17    30.17S
JUNEAU         CLOUDY    61  56  84 NE13      30.17F
$$

LSZ147-162-302300-
LAKE SUPERIOR

STATION/POSITION TIME  TEMP    WIND        PRES    WAVE
                       AIR SEA DIR/SP/G            HT/PER
                 (UTC) (F)     (DEG/KT/KT) (MB)    (FT/S)
W MID LAKE BUOY  2150   54 56   50/ 14/ 16 1027.5F   2/ 3
DEVILS ISLAND    2200   53      60/ 12/ 13 1028.1F
SAXON HARBOR     2140   57      10/ 11/ 13 1026.8F
$$

LMZ867-665-643>646-302300-
LAKE MICHIGAN

STATION/POSITION TIME  TEMP    WIND        PRES    WAVE
                       AIR SEA DIR/SP/G            HT/PER
                 (UTC) (F)     (DEG/KT/KT) (MB)    (FT/S)
CHAMBERS ISLAND  2100   63      30/ 13/ 16 1023.4F
N MID LAKE BUOY  2150   64 65   50/ 19/ 23 1022.8F   4/ 5
NORTHPORT PIER   2100   64      60/ 16/ 20 1024.0F
SISTER BAY       2108   67      20/  9/ 16   N/A
KEWAUNEE LAKESHO 2100   63      40/ 14/ 19 1022.4F
SHEBOYGAN LAKESH 2200   61      30/ 17/ 18 1021.4F
PORT WASHINGTON  2140   61      40/ 10/ 15 1022.0S
ATWATER BUOY     2200   58      30/ 10/ 14 1020.8R
MILWAUKEE LAKESH 2110   59      20/ 13/ 16   N/A
S MID LAKE BUOY  2150   64 68   60/ 19/ 21 1018.4F   4/ 5
KENOSHA   LAKESH 2200   63      50/ 16/ 19 1019.6S
$$

TC  - TEMPERATURE IN CELSIUS
VSB - VISIBILITY IN STATUTE MILES
WCI - WIND CHILL INDEX
HX  - HEAT INDEX




USA.gov is the U.S. government's official web portal to all federal, state and local government web resources and services.